Other Public Products
Issued by NWS Grand Forks, ND

Home | Current Version | Previous Version | Text Only | Print | Product List | Glossary Off
Versions: 1 2 3 4 5 6 7 8 9 10 11 12 13 14 15 16 17 18 19 20 21 22 23 24 25 26 27 28 29 30 31 32 33 34 35 36 37 38 39 40 41 42 43 44 45 46 47 48 49 50

000
FPUS83 KFGF 251931
OPUFGF
PRAIRIE TO PINES WEATHER ROUNDUP
NATIONAL WEATHER SERVICE EASTERN NORTH DAKOTA/GRAND FORKS ND
200 PM CDT TUE APR 25 2017

 **SATELLITE DATA USED TO AUGMENT SKY COVER AT AUTOMATED STATIONS**
 *****  WEATHER ACROSS EASTERN NORTH DAKOTA  *****

CITY           SKY/WX    TMP DP  RH WIND       PRES   REMARKS
GRAND FORKS    CLOUDY    36  29  75 N23G30    29.84S
GRAND FORKS AF CLOUDY    34  27  76 N22G29    29.85R WCI  22
GRAND CITY NWS NOT AVBL
BUXTON           N/A     34  31  88 N16G29      N/A  WCI  24
DEVILS LAKE    CLOUDY    31  26  82 N24G30    29.87F WCI  17
FARGO          CLOUDY    38  31  76 N24G32    29.75S
WAHPETON ARPT  CLOUDY    37  32  81 N21G32    29.69S
$$

 *****  WEATHER ACROSS CENTRAL AND WESTERN NORTH DAKOTA  *****

CITY           SKY/WX    TMP DP  RH WIND       PRES   REMARKS
JAMESTOWN      CLOUDY    32  27  81 N18G28    29.81S WCI  20
BISMARCK       CLOUDY    34  26  72 NE17      29.88S WCI  23
MINOT          CLOUDY    38  26  62 N16G23    29.92S
MINOT AFB      CLOUDY    37  24  60 NE17G24   29.92S
GARRISON         N/A     34  24  67 NE13G22   29.90R WCI  25
WILLISTON      CLOUDY    38  23  55 E12       29.97S
DICKINSON      CLOUDY    27  23  85 N15       29.87R WCI  15
HETTINGER      CLOUDY    27  25  92 N17       29.85S WCI  14
$$

 *****  OTHER OBSERVATIONS NORTHEAST NORTH DAKOTA  *****

CITY           SKY/WX    TMP DP  RH WIND       PRES   REMARKS
WALHALLA       NOT AVBL
LANGDON        CLOUDY    32  28  86 NE30      29.86F WCI  18
CAVALIER       CLOUDY    34  25  69 N20G32    29.89F WCI  22
GRAFTON        CLOUDY    34  27  75 N20G29    29.90R WCI  22
CANDO          NOT AVBL
FORT TOTTEN      N/A     31  27  84 NE8       29.95S WCI  23
ROLLA          MOCLDY    36  28  75 NE23G30   29.90F
RUGBY          NOT AVBL
 ***** THE ABOVE OBSERVATIONS ARE NON NWS ARE NOT QUALITY
        CONTROLLED AND MAY MIS-REPORT RAIN FOR SNOW...
$$

 *****  OTHER OBSERVATIONS SOUTHEAST NORTH DAKOTA *****

CITY           SKY/WX    TMP DP  RH WIND       PRES   REMARKS
COOPERSTOWN    CLOUDY    32  28  86 N21G30    29.83F WCI  20
VALLEY CITY    FLURRIES  32  32 100 N24G30    29.81S WCI  19
OAKES          NOT AVBL
GWINNER        CLOUDY    36  30  80 MISG      29.72F
SHEYENNE NWR     N/A     35  29  77 N14       29.95S
BUFFALO          N/A     33  27  79 SE21        N/A  WCI  21
WYNDMERE         N/A     39  34  81 N22         N/A
 ***** THE ABOVE OBSERVATIONS ARE NON NWS ARE NOT QUALITY
       CONTROLLED AND MAY MIS-REPORT RAIN FOR SNOW...
$$

  *****  WEATHER ACROSS NORTHERN MINNESOTA  *****

CITY           SKY/WX    TMP DP  RH WIND       PRES   REMARKS
FLAG ISLAND    CLOUDY    30  25  80 NE21G33   29.87R WCI  17
WARROAD        CLOUDY    32  27  80 NE21G26   29.87R WCI  20
ROSEAU         CLOUDY    34  28  80 NE18G26   29.85R WCI  23
HALLOCK        CLOUDY    36  27  69 N21       29.87R
THF RVR FALLS  CLOUDY    36  28  75 N22       29.80F
HALSTAD          N/A     37  32  84 N25         N/A
FOSSTON        CLOUDY    36  36 100 N21       29.75R
BAUDETTE       CLOUDY    32  26  78 NE17G23   29.82R WCI  21
WASKISH        CLOUDY    36  32  87 N13       29.76F
CROOKSTON      CLOUDY    36  30  80 NE15G22   29.82S
$$
  *****  WEATHER ACROSS CENTRAL AND WEST MINNESOTA  *****

CITY           SKY/WX    TMP DP  RH WIND       PRES   REMARKS
BEMIDJI        CLOUDY    36  32  87 N14       29.71S
PARK RAPIDS    CLOUDY    41  32  70 N14       29.65F
WADENA         CLOUDY    43  37  81 N16       29.63R
DETROIT LAKES  CLOUDY    39  36  87 N7G20     29.68S
MOORHEAD       CLOUDY    37  30  75 N24G32    29.74S
FERGUS FALLS   CLOUDY    39  37  93 N15G24    29.65S
ELBOW LAKE     CLOUDY    43  38  82 N13       29.64S
MORRIS MN      PTSUNNY   43  39  87 N21       29.60F
STAPLES        CLOUDY    45  36  70 N13G18    29.62R
WHEATON        CLOUDY    39  34  81 NW22G30   29.68S
$$
  *****  WEATHER ELSEWHERE ACROSS MINNESOTA  *****

CITY           SKY/WX    TMP DP  RH WIND       PRES   REMARKS
DULUTH         PTSUNNY   56  40  55 E12       29.60F
INTRNTL FALLS  CLOUDY    32  27  81 NE13G22   29.79R WCI  22
ELY            CLOUDY    45  37  76 N7        29.69S
CLOQUET        FAIR      57  37  47 E10       29.59S
BRAINERD       FAIR      53  40  61 N15G22    29.59F
HIBBING        CLOUDY    44  38  79 N15G22    29.66S
ALEXANDRIA     CLOUDY    45  38  76 N15       29.61R
SAINT CLOUD    FAIR      59  44  57 NE8       29.54F
MINNEAPOLIS    CLOUDY    56  45  66 SW9       29.57R
$$

  *****  WEATHER ACROSS SOUTH DAKOTA  *****

CITY           SKY/WX    TMP DP  RH WIND       PRES   REMARKS
SIOUX FALLS    LGT RAIN  41  41 100 N10       29.58S
BROOKINGS      CLOUDY    38  34  85 N18       29.59F
WATERTOWN      CLOUDY    35  32  88 N21       29.62F WCI  24
HURON          CLOUDY    38  32  79 N20G28    29.67R
SISSETON         N/A     37  33  85 N24       29.67F
ABERDEEN       CLOUDY    36  28  73 N22G31    29.72F
MITCHELL       CLOUDY    40  34  79 N22       29.66S
PIERRE         CLOUDY    35  28  75 N16       29.75R
MOBRIDGE       CLOUDY    35  25  66 N16       29.76F
RAPID CITY     FLURRIES  30  27  88 N18       29.77R WCI  18
$$

  *****  SOME WEATHER IN NEARBY STATES *****

CITY           SKY/WX    TMP DP  RH WIND       PRES   REMARKS
GLASGOW MT     CLOUDY    36  24  62 E12       29.96F
GREAT FALLS MT CLOUDY    52  38  58 NE8       29.78F
CHEYENNE WY    PTSUNNY   50  23  34 NW14G32   29.60F
SCOTTSBLUFF NE CLOUDY    46  38  73 NE21G31   29.62R
OMAHA NE       CLOUDY    52  43  71 N15G23    29.49S
DES MOINES IA  CLOUDY    74  48  39 SE16      29.44F
DAVENPORT IA   FAIR      76  43  30 SE22G29   29.53F
CHICAGO IL     CLOUDY    75  48  38 S16       29.63F
EAU CLAIRE WI  FAIR      72  42  34 S9        29.51F
LA CROSSE WI   LGT RAIN  69  47  45 S9        29.54S
$$

  *****  SOME NATIONAL WEATHER *****

CITY           SKY/WX    TMP DP  RH WIND       PRES   REMARKS
LA GUARDIA NY  CLOUDY    54  51  90 NE22      30.00F
RALEIGH NC     PTSUNNY   68  58  70 W7        29.65R
ATLANTA GA     FAIR      75  57  53 N12G18    29.76F
NEW ORLEANS LA FAIR      77  59  53 S12G18    29.80F
OKLAHOMA CITY  FAIR      85  55  35 SW18G25   29.38F
ALBUQUERQUE NM PTSUNNY   50  43  77 CALM      29.72F
SALT LAKE CITY LGT RAIN  42  38  85 N8        29.88S
LOS ANGELES CA PTSUNNY   69  47  45 W9        29.93R
BOISE ID       PTSUNNY   52  36  54 NW8G20    29.93F
SEATTLE WA     CLOUDY    52  40  63 SW13      29.96S
$$

*** WEATHER ACROSS MANITOBA...SASKATCHEWAN AND ONTARIO ***
                ***ONTARIO***

CITY           SKY/WX    TMP DP  RH WIND       PRES   REMARKS
GERALDTON      FLURRIES  27  25  93 NE13G22   29.84S WCI  16
THUNDER BAY    CLOUDY    45  39  81 NE12      29.72S
SIOUX LOOKOUT  CLOUDY    27  19  74 VRB7G20   29.91R WCI  19
TORONTO        CLOUDY    48  46  93 E13G22    29.95S
BIG TROUT LK   SUNNY     27   5  39 E9G17     30.20S WCI  17
PICKLE LAKE    LGT SNOW  23  16  74 NE13G25   30.00S DRFTSNOWWCI  11
DRYDEN         CLOUDY    27  21  80 NE16G26   29.87S WCI  14
KENORA         CLOUDY    28  21  74 NE15G25   29.89R WCI  17
$$
                *** MANITOBA***

CITY           SKY/WX    TMP DP  RH WIND       PRES   REMARKS
BRANDON        MOSUNNY   37  21  52 NE18G31   29.98S
DAUPHIN        SUNNY     37  18  44 NE17G24   30.09S
ISLAND LAKE    SUNNY     30   7  37 N8G18     30.20S WCI  23
PILOT MOUND      N/A     36  25  64 N18G25      N/A
THE PAS        MOSUNNY   30   1  29 NE12G18   30.22S WCI  21
THOMPSON       SUNNY     21  -4  33 VRB6      30.31F WCI  14
WINNIPEG       PTSUNNY   37  25  60 NE17G26   29.95S
LYNN LAKE      SUNNY     27   3  36 SE9       30.25S WCI  17
CHURCHILL      MOSUNNY    7   0  72 S8        30.45F WCI  -6
GILLAM         SUNNY     16  -2  45 NE7       30.38F WCI   6
$$
                ***SASKATCHEWAN***

CITY           SKY/WX    TMP DP  RH WIND       PRES   REMARKS
ESTEVAN        PTSUNNY   37  25  60 NE13G23   29.98F
KINDERSLEY     CLOUDY    34  23  64 E17       29.96F WCI  23
LLOYDMINSTER   FLURRIES  32  28  86 SE14      30.02S WCI  22
PRINCE ALBERT  PTSUNNY   37  12  35 SE8G17    30.12F
REGINA         MOSUNNY   34  18  51 E12G17    30.03S
YORKTON        SUNNY     36  21  55 N13       30.06S


USA.gov is the U.S. government's official web portal to all federal, state and local government web resources and services.